Location: Unspecified
(51.0950°N, 12.9690°E)
Time: 22:51:57
(UTC+00:00)

PAYLOAD B - Pass Details

Date: 28 October 2021
Orbit: 849 x 871 km, 99.1° (Epoch: 01 December)

Event Time Altitude Azimuth Distance (km) Brightness Sun altitude
Rises 16:28:01 0° 156° (SSE) 3,422 7.2 -6.7°
Reaches altitude 10° 16:30:22 10° 154° (SSE) 2,493 6.5 -7.0°
Maximum altitude 16:35:53 74° 71° (ENE) 901 4.2 -7.9°
Drops below altitude 10° 16:41:29 10° 347° (NNW) 2,524 6.7 -8.7°
Sets 16:43:53 0° 346° (NNW) 3,468 7.5 -9.1°
